CKK219 ZSPD-KLAX

Flight info

Callsign CKK219
Flight time N/A
Altitude 32000
Route LAM81D LAMEN/N0492F320 A593 SADLI Y590 BEDAR Y591 FUE Y23 KASTE Y81 TASOT Y57 POROT Y809 AVBET OTR11 LEPKI DCT 38N160E 40N170E 41N180E 43N170W 44N160W 45N150W 44N140W 39N130W DCT ALCOA DCT PIRAT DCT BURGL IRNMN2
Aircraft B77L/H-SDE1E2E3FGHIJ2J3J4J5M1RWXY/LB1D1

Departure

Time 2026-05-04 10:50
Airport Shanghai Pudong International Airport (ZSPD)

Arrival

Time N/A
Airport Los Angeles International Airport (KLAX)
Time Latitude Longitude Altitude Speed Heading
2026-05-04 10:27 31.13715 121.78564 27 ft 0 kts 252°
2026-05-04 10:34 31.13716 121.78565 27 ft 2 kts 252°
2026-05-04 10:34 31.13723 121.78593 27 ft 4 kts 257°
2026-05-04 10:34 31.13728 121.78624 27 ft 4 kts 264°
2026-05-04 10:34 31.13728 121.78655 27 ft 4 kts 279°
2026-05-04 10:35 31.13720 121.78682 27 ft 4 kts 324°
2026-05-04 10:35 31.13714 121.78686 27 ft 1 kts 342°
2026-05-04 10:39 31.14209 121.78515 27 ft 12 kts 15°
2026-05-04 10:39 31.14272 121.78574 27 ft 12 kts 13°
2026-05-04 10:39 31.14352 121.78553 27 ft 12 kts 341°
2026-05-04 10:40 31.14431 121.78522 27 ft 12 kts 342°
2026-05-04 10:40 31.14510 121.78493 27 ft 12 kts 342°
2026-05-04 10:40 31.14590 121.78464 27 ft 12 kts 348°
2026-05-04 10:40 31.14646 121.78518 27 ft 12 kts 74°
2026-05-04 10:41 31.14671 121.78611 27 ft 12 kts 72°
2026-05-04 10:41 31.14697 121.78704 26 ft 12 kts 72°
2026-05-04 10:41 31.14723 121.78797 27 ft 12 kts 70°
2026-05-04 10:41 31.14750 121.78890 28 ft 12 kts 71°
2026-05-04 10:42 31.14777 121.78982 28 ft 12 kts 71°
2026-05-04 10:42 31.14803 121.79075 29 ft 12 kts 73°
2026-05-04 10:42 31.14827 121.79169 29 ft 12 kts 73°
2026-05-04 10:42 31.14856 121.79259 28 ft 12 kts 56°
2026-05-04 10:43 31.14932 121.79269 28 ft 12 kts 341°
2026-05-04 10:44 31.15492 121.79058 27 ft 12 kts 342°
2026-05-04 10:45 31.15572 121.79028 27 ft 12 kts 340°
2026-05-04 10:45 31.15652 121.78996 27 ft 12 kts 341°
2026-05-04 10:45 31.15731 121.78964 27 ft 12 kts 341°
2026-05-04 10:45 31.15811 121.78934 27 ft 12 kts 343°
2026-05-04 10:46 31.15892 121.78906 27 ft 12 kts 343°
2026-05-04 10:46 31.15971 121.78876 27 ft 12 kts 341°
2026-05-04 10:46 31.16051 121.78845 27 ft 12 kts 341°
2026-05-04 10:46 31.16123 121.78817 27 ft 7 kts 341°
2026-05-04 10:47 31.16146 121.78768 27 ft 8 kts 268°
2026-05-04 10:47 31.16135 121.78708 27 ft 8 kts 253°
2026-05-04 10:47 31.16119 121.78648 27 ft 8 kts 253°
2026-05-04 10:47 31.16081 121.78613 27 ft 8 kts 186°
2026-05-04 10:49 31.13503 121.79607 73 ft 204 kts 160°
2026-05-04 10:49 31.12129 121.80140 535 ft 214 kts 160°
2026-05-04 10:50 31.10694 121.80720 1112 ft 222 kts 157°
2026-05-04 10:51 30.98896 121.84583 5255 ft 269 kts 162°
2026-05-04 10:52 30.97727 121.85107 5621 ft 274 kts 159°
2026-05-04 10:52 30.95946 121.85971 6172 ft 281 kts 159°
2026-05-04 10:52 30.93520 121.87136 6945 ft 288 kts 159°
2026-05-04 10:54 30.81309 121.93930 10292 ft 321 kts 106°
2026-05-04 10:54 30.81049 121.96499 10451 ft 332 kts 79°
2026-05-04 10:56 30.86653 122.16823 13554 ft 404 kts 70°
2026-05-04 10:56 30.87522 122.19957 14133 ft 411 kts 70°
2026-05-04 10:56 30.88403 122.23144 14758 ft 416 kts 70°
2026-05-04 10:57 30.89295 122.26369 15353 ft 421 kts 70°
2026-05-04 10:57 30.90396 122.29511 15733 ft 421 kts 56°
2026-05-04 10:57 30.92241 122.32148 16071 ft 422 kts 43°
2026-05-04 10:57 30.94283 122.34642 16579 ft 428 kts 45°
2026-05-04 10:58 30.96255 122.37264 17178 ft 432 kts 46°
2026-05-04 10:58 30.98193 122.39960 17718 ft 434 kts 50°
2026-05-04 10:58 30.99648 122.43083 17983 ft 448 kts 71°
2026-05-04 10:58 31.00152 122.46681 18451 ft 452 kts 90°
2026-05-04 10:59 31.00093 122.50305 18856 ft 457 kts 91°
2026-05-04 10:59 31.00050 122.54037 19271 ft 463 kts 91°
2026-05-04 10:59 31.00032 122.57809 19770 ft 468 kts 91°
2026-05-04 10:59 31.00026 122.61619 20243 ft 473 kts 91°
2026-05-04 11:00 31.00025 122.65477 20677 ft 478 kts 91°
2026-05-04 11:01 31.00014 122.93627 23394 ft 513 kts 92°
2026-05-04 11:02 31.00153 122.97796 23653 ft 518 kts 82°
2026-05-04 11:02 31.01128 123.01804 23859 ft 526 kts 64°
2026-05-04 11:05 31.31982 123.52339 28464 ft 571 kts 53°
2026-05-04 11:06 31.34285 123.56133 28764 ft 573 kts 53°
2026-05-04 11:06 31.36605 123.59931 29080 ft 575 kts 53°
2026-05-04 11:06 31.38940 123.63744 29386 ft 577 kts 53°
2026-05-04 11:06 31.41277 123.67562 29787 ft 577 kts 53°
2026-05-04 11:08 31.57543 123.94290 32076 ft 580 kts 52°
2026-05-04 11:10 31.66603 124.25195 32102 ft 583 kts 77°
2026-05-04 11:12 31.74745 124.61989 32108 ft 578 kts 77°
2026-05-04 11:12 31.76741 124.71132 32103 ft 577 kts 77°
2026-05-04 11:13 31.78730 124.80269 32105 ft 577 kts 77°
2026-05-04 11:13 31.80716 124.89423 32123 ft 578 kts 77°
2026-05-04 11:16 31.77334 125.34584 32115 ft 569 kts 107°
2026-05-04 11:16 31.75844 125.43724 32125 ft 570 kts 107°
2026-05-04 11:17 31.74338 125.52881 32125 ft 571 kts 108°
2026-05-04 11:19 31.76274 125.85582 32120 ft 589 kts 76°
2026-05-04 11:19 31.77344 125.90226 32120 ft 589 kts 77°
2026-05-04 11:19 31.79366 125.99549 32125 ft 589 kts 78°
2026-05-04 11:20 31.81400 126.08886 32120 ft 589 kts 77°
2026-05-04 11:20 31.83439 126.18230 32123 ft 590 kts 78°
2026-05-04 11:22 31.91543 126.55662 32125 ft 591 kts 77°
2026-05-04 11:23 31.93619 126.65016 32115 ft 590 kts 77°
2026-05-04 11:25 32.00775 126.97675 32110 ft 587 kts 77°
2026-05-04 11:25 32.02795 127.06987 32098 ft 587 kts 77°
2026-05-04 11:26 32.05277 127.16152 32094 ft 587 kts 66°
2026-05-04 11:27 32.17018 127.46796 32101 ft 586 kts 65°
2026-05-04 11:28 32.20311 127.55613 32097 ft 586 kts 65°
2026-05-04 11:28 32.23595 127.64415 32094 ft 586 kts 65°
2026-05-04 11:29 32.26875 127.73219 32091 ft 585 kts 65°
2026-05-04 11:29 32.30146 127.82036 32094 ft 585 kts 65°
2026-05-04 11:33 32.52876 128.43931 32085 ft 587 kts 66°
2026-05-04 11:33 32.56107 128.52822 32076 ft 587 kts 66°
2026-05-04 11:34 32.59336 128.61726 32072 ft 588 kts 67°
2026-05-04 11:34 32.62559 128.70651 32078 ft 589 kts 67°
2026-05-04 11:35 32.65784 128.79602 32065 ft 590 kts 68°
2026-05-04 11:35 32.68311 128.88769 32070 ft 588 kts 79°
2026-05-04 11:36 32.70149 128.98229 32079 ft 589 kts 80°
2026-05-04 11:36 32.72013 129.07725 32074 ft 591 kts 79°
2026-05-04 11:37 32.73929 129.17219 32075 ft 592 kts 79°
2026-05-04 11:37 32.75864 129.26721 32070 ft 591 kts 79°
2026-05-04 11:38 32.77783 129.36223 32071 ft 591 kts 79°
2026-05-04 11:38 32.79685 129.45710 32073 ft 590 kts 80°
2026-05-04 11:39 32.81578 129.55191 32073 ft 590 kts 80°
2026-05-04 11:41 32.87202 129.88561 32072 ft 587 kts 85°
2026-05-04 11:41 32.88548 129.98144 32075 ft 588 kts 85°
2026-05-04 11:42 32.89923 130.07748 32078 ft 589 kts 85°
2026-05-04 11:42 32.91306 130.17356 32073 ft 589 kts 85°
2026-05-04 11:43 32.92676 130.26969 32074 ft 589 kts 85°
2026-05-04 11:43 32.94034 130.36588 32074 ft 589 kts 85°
2026-05-04 11:44 32.95386 130.46215 32077 ft 590 kts 85°
2026-05-04 11:44 32.96733 130.55859 32075 ft 590 kts 85°
2026-05-04 11:45 32.98064 130.65434 32088 ft 590 kts 85°
2026-05-04 11:45 32.99396 130.75080 32071 ft 589 kts 85°
2026-05-04 11:46 33.00721 130.84711 32081 ft 589 kts 86°
2026-05-04 11:46 33.02034 130.94349 32078 ft 589 kts 86°
2026-05-04 11:47 33.03343 131.03985 32068 ft 588 kts 86°
2026-05-04 11:47 33.04630 131.13539 32080 ft 587 kts 86°
2026-05-04 11:48 33.05919 131.23161 32076 ft 589 kts 85°
2026-05-04 11:48 33.07206 131.32804 32064 ft 589 kts 86°
2026-05-04 11:49 33.08485 131.42460 32062 ft 590 kts 86°
2026-05-04 11:49 33.09759 131.52123 32059 ft 590 kts 86°
2026-05-04 11:50 33.11025 131.61797 32047 ft 590 kts 86°
2026-05-04 11:50 33.12286 131.71488 32056 ft 591 kts 86°
2026-05-04 11:51 33.13540 131.81175 32061 ft 590 kts 86°
2026-05-04 11:51 33.14784 131.90849 32051 ft 591 kts 86°
2026-05-04 11:52 33.16023 132.00543 32060 ft 590 kts 86°
2026-05-04 11:52 33.17249 132.10225 32056 ft 590 kts 87°
2026-05-04 11:53 33.18466 132.19912 32056 ft 590 kts 87°
2026-05-04 11:53 33.19665 132.29606 32055 ft 590 kts 87°
2026-05-04 11:55 33.24441 132.68300 32049 ft 587 kts 86°
2026-05-04 11:56 33.25625 132.77964 32034 ft 590 kts 87°
2026-05-04 11:56 33.26773 132.87701 32028 ft 591 kts 87°
2026-05-04 11:57 33.27951 132.97433 32045 ft 592 kts 87°
2026-05-04 11:57 33.29131 133.07175 32031 ft 591 kts 87°
2026-05-04 11:58 33.30283 133.16851 32025 ft 587 kts 88°
2026-05-04 11:58 33.31398 133.26533 32044 ft 590 kts 88°
2026-05-04 11:59 33.32509 133.36232 32034 ft 594 kts 88°
2026-05-04 11:59 33.33632 133.46042 32037 ft 597 kts 88°
2026-05-04 12:00 33.34758 133.55888 32030 ft 598 kts 88°
2026-05-04 12:00 33.35878 133.65734 32016 ft 597 kts 88°
2026-05-04 12:01 33.36801 133.73906 32017 ft 595 kts 88°
2026-05-04 12:02 33.40595 134.08169 32034 ft 592 kts 89°
2026-05-04 12:03 33.41658 134.17954 32014 ft 593 kts 89°
2026-05-04 12:03 33.42717 134.27720 32023 ft 590 kts 89°
2026-05-04 12:04 33.43760 134.37465 32019 ft 590 kts 89°
2026-05-04 12:04 33.44798 134.47205 32021 ft 590 kts 89°
2026-05-04 12:05 33.45827 134.56946 32021 ft 589 kts 89°
2026-05-04 12:05 33.46844 134.66687 32019 ft 589 kts 89°
2026-05-04 12:06 33.47851 134.76413 32010 ft 588 kts 89°
2026-05-04 12:06 33.48853 134.86138 32005 ft 588 kts 89°
2026-05-04 12:07 33.49843 134.95841 32000 ft 586 kts 89°
2026-05-04 12:07 33.50829 135.05540 32000 ft 585 kts 89°
2026-05-04 12:08 33.51808 135.15151 31998 ft 584 kts 89°
2026-05-04 12:08 33.52787 135.24823 32001 ft 584 kts 89°
2026-05-04 12:09 33.53756 135.34482 32000 ft 583 kts 90°
2026-05-04 12:09 33.54713 135.44128 31991 ft 583 kts 90°
2026-05-04 12:10 33.55665 135.53789 32007 ft 583 kts 90°
2026-05-04 12:10 33.56610 135.63457 31980 ft 584 kts 90°
2026-05-04 12:11 33.57548 135.73117 31997 ft 583 kts 90°
2026-05-04 12:11 33.58471 135.82784 31986 ft 583 kts 90°
2026-05-04 12:12 33.59384 135.92381 31998 ft 584 kts 90°
2026-05-04 12:12 33.60301 136.02069 31992 ft 584 kts 90°
2026-05-04 12:14 33.63898 136.40912 32996 ft 584 kts 91°
2026-05-04 12:15 33.64770 136.50556 32972 ft 579 kts 90°
2026-05-04 12:15 33.65632 136.60154 32994 ft 578 kts 90°
2026-05-04 12:16 33.66485 136.69745 32986 ft 577 kts 90°
2026-05-04 12:16 33.67329 136.79320 33008 ft 575 kts 90°
2026-05-04 12:17 33.68158 136.88823 32980 ft 576 kts 90°
2026-05-04 12:17 33.68987 136.98397 32981 ft 576 kts 91°
2026-05-04 12:18 33.69808 137.07961 32972 ft 576 kts 90°
2026-05-04 12:18 33.70372 137.17522 32965 ft 570 kts 95°
2026-05-04 12:19 33.70633 137.27038 32956 ft 570 kts 95°
2026-05-04 12:19 33.70870 137.36551 32950 ft 569 kts 95°
2026-05-04 12:20 33.71134 137.45996 32949 ft 569 kts 95°
2026-05-04 12:20 33.71404 137.55482 32943 ft 568 kts 95°
2026-05-04 12:21 33.71671 137.64971 32935 ft 568 kts 95°
2026-05-04 12:21 33.71926 137.74449 32934 ft 568 kts 95°
2026-05-04 12:22 33.72172 137.83927 32931 ft 567 kts 96°
2026-05-04 12:22 33.72410 137.93397 32924 ft 567 kts 96°
2026-05-04 12:23 33.72642 138.02874 32924 ft 567 kts 96°
2026-05-04 12:23 33.72869 138.12345 32916 ft 567 kts 96°
2026-05-04 12:24 33.73085 138.21809 32917 ft 567 kts 96°
2026-05-04 12:24 33.73294 138.31279 32858 ft 568 kts 96°
2026-05-04 12:25 33.73500 138.40756 32863 ft 567 kts 96°
2026-05-04 12:25 33.74625 138.50166 32860 ft 581 kts 78°
2026-05-04 12:26 33.77781 138.59132 32866 ft 587 kts 60°
2026-05-04 12:26 33.82119 138.67436 32867 ft 587 kts 58°
2026-05-04 12:27 33.86459 138.75751 32855 ft 586 kts 59°
2026-05-04 12:27 33.90704 138.84130 32847 ft 586 kts 60°
2026-05-04 12:28 33.94906 138.92535 32855 ft 585 kts 60°
2026-05-04 12:28 33.99100 139.00925 32854 ft 584 kts 60°
2026-05-04 12:29 34.03297 139.09317 32830 ft 585 kts 60°
2026-05-04 12:29 34.07498 139.17740 32855 ft 586 kts 60°
2026-05-04 12:30 34.11680 139.26145 32849 ft 588 kts 60°
2026-05-04 12:30 34.15887 139.34618 32843 ft 589 kts 60°
2026-05-04 12:31 34.20098 139.43109 32831 ft 590 kts 60°
2026-05-04 12:31 34.24306 139.51616 32799 ft 590 kts 60°
2026-05-04 12:32 34.30587 139.64366 32789 ft 586 kts 60°
2026-05-04 12:33 34.34744 139.72829 32782 ft 584 kts 60°
2026-05-04 12:33 34.38886 139.81283 32782 ft 582 kts 60°
2026-05-04 12:34 34.43007 139.89708 32774 ft 581 kts 61°
2026-05-04 12:34 34.47116 139.98133 32773 ft 580 kts 61°
2026-05-04 12:35 34.51216 140.06556 32784 ft 580 kts 61°
2026-05-04 12:35 34.55312 140.14996 32776 ft 581 kts 61°
2026-05-04 12:36 34.59410 140.23457 32775 ft 582 kts 61°
2026-05-04 12:36 34.63511 140.31942 32778 ft 583 kts 61°
2026-05-04 12:37 34.67584 140.40399 32770 ft 585 kts 61°
2026-05-04 12:37 34.71670 140.48950 32781 ft 586 kts 62°
2026-05-04 12:38 34.75656 140.57603 32759 ft 587 kts 63°
2026-05-04 12:38 34.79612 140.66294 32760 ft 588 kts 63°
2026-05-04 12:39 34.83589 140.75005 32761 ft 589 kts 62°
2026-05-04 12:39 34.87569 140.83712 32765 ft 589 kts 62°
2026-05-04 12:40 34.91545 140.92421 32760 ft 588 kts 63°
2026-05-04 12:40 34.95517 141.01146 32757 ft 588 kts 63°
2026-05-04 12:41 34.99473 141.09864 32759 ft 587 kts 63°
2026-05-04 12:41 35.03414 141.18571 32758 ft 586 kts 63°
2026-05-04 12:42 35.07323 141.27227 32756 ft 586 kts 63°
2026-05-04 12:42 35.11249 141.35950 32761 ft 586 kts 63°
2026-05-04 12:43 35.15173 141.44678 32760 ft 586 kts 63°
2026-05-04 12:43 35.19088 141.53418 32758 ft 587 kts 63°
2026-05-04 12:44 35.23005 141.62193 32757 ft 587 kts 63°
2026-05-04 12:44 35.26921 141.70977 32759 ft 588 kts 64°
2026-05-04 12:45 35.30839 141.79789 32759 ft 589 kts 64°
2026-05-04 12:45 35.34758 141.88624 32759 ft 590 kts 64°
2026-05-04 12:46 35.38668 141.97465 32761 ft 591 kts 64°
2026-05-04 12:46 35.42557 142.06281 32771 ft 591 kts 64°
2026-05-04 12:47 35.46466 142.15163 32776 ft 591 kts 64°
2026-05-04 12:47 35.50360 142.24041 32775 ft 590 kts 64°
2026-05-04 12:48 35.54244 142.32919 32779 ft 590 kts 64°
2026-05-04 12:48 35.57464 142.40290 32777 ft 589 kts 64°
2026-05-04 12:49 35.61330 142.49170 32767 ft 589 kts 64°
2026-05-04 12:49 35.65192 142.58057 32758 ft 588 kts 64°
2026-05-04 12:50 35.69032 142.66925 32759 ft 587 kts 64°
2026-05-04 12:50 35.72864 142.75797 32749 ft 586 kts 64°